Regional Weather Roundup
Issued by NWS Little Rock, AR

Home | Current Version | Previous Version | Graphics & Text | Print | Product List | Glossary On
Versions: 1 2 3 4 5 6 7 8 9 10 11 12 13 14 15 16 17 18 19 20 21 22 23 24 25 26 27 28 29 30 31 32 33 34 35 36 37 38 39 40 41 42 43 44 45 46 47 48 49 50
000
ASUS44 KLZK 281805
RWRLZK

WEATHER ROUNDUP FOR ARKANSAS
NATIONAL WEATHER SERVICE LITTLE ROCK AR
100 PM CDT FRI APR 28 2017

NOTE: "FAIR" INDICATES FEW OR NO CLOUDS BELOW 12,000 FEET WITH NO
SIGNIFICANT WEATHER AND/OR OBSTRUCTIONS TO VISIBILITY.

ARZ001-003-010-029-281900-
NORTHWEST ARKANSAS

CITY           SKY/WX    TMP DP  RH WIND       PRES   REMARKS
FAYETTEVILLE   CLOUDY    64  62  93 S12       29.70S
6HR MIN TEMP:  59; 6HR MAX TEMP:  64;

FORT SMITH     CLOUDY    65  58  78 E8        29.68S
6HR MIN TEMP:  58; 6HR MAX TEMP:  66;

HARRISON       CLOUDY    61  59  93 SE7       29.71F
6HR MIN TEMP:  53; 6HR MAX TEMP:  61;

BENTONVILLE    CLOUDY    66  59  77 SW9       29.70S
6HR MIN TEMP:  55; 6HR MAX TEMP:  66; 6HR PCP:  0.05;

ROGERS         LGT RAIN  64  60  87 S10       29.70S
6HR MIN TEMP:  55; 6HR MAX TEMP:  64; 6HR PCP:  0.01;

SILOAM SPGS    CLOUDY    66  57  72 S12G20    29.69S
6HR MIN TEMP:  55; 6HR MAX TEMP:  66; 6HR PCP:  0.02;

HIGHFILL       CLOUDY    65  61  87 S9        29.69S
6HR MIN TEMP:  57; 6HR MAX TEMP:  65; 6HR PCP:  0.08;

SPRINGDALE     CLOUDY    64  61  88 S9G16     29.71S
$$

ARZ004-005-016-281900-
NORTH CENTRAL ARKANSAS

CITY           SKY/WX    TMP DP  RH WIND       PRES   REMARKS
BATESVILLE     CLOUDY    64  61  88 SE6       29.75F
6HR MIN TEMP:  54; 6HR MAX TEMP:  64;

FLIPPIN        CLOUDY   N/A N/A N/A CALM      29.70S
MTN HOME       CLOUDY    61  57  87 S6        29.71F
6HR MIN TEMP:  54; 6HR MAX TEMP:  63;

$$

ARZ040-041-281900-
WEST CENTRAL ARKANSAS

CITY           SKY/WX    TMP DP  RH WIND       PRES   REMARKS
MENA           CLOUDY    72  72 100 S3        29.70F
MOUNT IDA      CLOUDY    70  65  84 VRB5      29.69S
6HR MIN TEMP:  59; 6HR MAX TEMP:  70; 6HR PCP: TRACE;

$$

ARZ009-017-025-026-028-281900-
NORTHEAST ARKANSAS

CITY           SKY/WX    TMP DP  RH WIND       PRES   REMARKS
CORNING        CLOUDY    66  64  94 SE9       29.75F
JONESBORO      CLOUDY    72  66  81 S13       29.75F
6HR MIN TEMP:  57; 6HR MAX TEMP:  72; 6HR PCP: TRACE;

NEWPORT        CLOUDY    70  66  87 MISG      29.74F
6HR MIN TEMP:  57; 6HR MAX TEMP:  70;

WALNUT RIDGE   CLOUDY    66  61  82 CALM      29.75F
6HR MIN TEMP:  57; 6HR MAX TEMP:  66;

BLYTHEVILLE    CLOUDY    73  67  81 S20G26    29.78F
6HR MIN TEMP:  57; 6HR MAX TEMP:  73; 6HR PCP:  0.02;

NW BLYTHEVILLE CLOUDY    73  66  78 S9G18     29.77F
$$

ARZ022-023-033-042-044-281900-
CENTRAL ARKANSAS

CITY           SKY/WX    TMP DP  RH WIND       PRES   REMARKS
LITTLE ROCK    CLOUDY    77  71  82 S16G22    29.72F
6HR MIN TEMP:  57; 6HR MAX TEMP:  77;

N LITTLE ROCK    N/A     72  68  87 S5        29.73F
6HR MIN TEMP:  57; 6HR MAX TEMP:  72;

JACKSONVILLE   CLOUDY    73  68  86 SE6       29.72F
6HR MIN TEMP:  58; 6HR MAX TEMP:  73;

CONWAY           N/A     68  64  88 CALM      29.71S
SEARCY         CLOUDY    70  66  87 SE5       29.75F
6HR MIN TEMP:  58; 6HR MAX TEMP:  70; 6HR PCP: TRACE;

HOT SPRINGS    CLOUDY    74  68  81 S7        29.72F
6HR MIN TEMP:  59; 6HR MAX TEMP:  74;

RUSSELLVILLE   CLOUDY    64  61  90 VRB3      29.71F FOG
6HR MIN TEMP:  58; 6HR MAX TEMP:  64;

CLINTON        FOG       63  61  94 CALM      29.74F VSB 1
$$

ARZ036-281900-
EAST ARKANSAS

CITY           SKY/WX    TMP DP  RH WIND       PRES   REMARKS
WEST MEMPHIS   CLOUDY    75  71  87 S17G23    29.77F
6HR MIN TEMP:  57; 6HR MAX TEMP:  75;

$$

ARZ050-053-066-070-073-281900-
SOUTHWEST ARKANSAS

CITY           SKY/WX    TMP DP  RH WIND       PRES   REMARKS
ARKADELPHIA    CLOUDY    75  70  84 CALM      29.71F
6HR MIN TEMP:  59; 6HR MAX TEMP:  75;

CAMDEN         CLOUDY    82  68  61 S8        29.71F HX  85
TEXARKANA      PTSUNNY   81  72  74 S12       29.69F HX  85
6HR MIN TEMP:  61; 6HR MAX TEMP:  81;

EL DORADO      CLOUDY    83  70  64 S18G28    29.72F HX  87
6HR MIN TEMP:  64; 6HR MAX TEMP:  83;

DE QUEEN       CLOUDY    73  68  84 SE6       29.67F
6HR MIN TEMP:  60; 6HR MAX TEMP:  73;

$$

ARZ056-057-069-281900-
SOUTHEAST ARKANSAS

CITY           SKY/WX    TMP DP  RH WIND       PRES   REMARKS
PINE BLUFF     CLOUDY    78  71  79 S14G22    29.73F
6HR MIN TEMP:  61; 6HR MAX TEMP:  79; 6HR PCP: TRACE;

STUTTGART      CLOUDY    79  63  57 S17G24    29.75F
6HR MIN TEMP:  59; 6HR MAX TEMP:  79;

MONTICELLO     CLOUDY    82  71  69 S14G26    29.75F HX  86
6HR MIN TEMP:  64; 6HR MAX TEMP:  82;


$$





USA.gov is the U.S. government's official web portal to all federal, state and local government web resources and services.